Home   Weather   Latiano   Past weeks
Flag for Italy

Past Weather in Latiano, Italy — Yesterday and Last 2 Weeks

Now
57 °F

Clear.


Feels Like: 54 °F
Forecast: 56 / 51 °F
Wind: 14 mph from North

Location: Brindisi Airport

Current Time: Mar 27, 2019 at 4:37:56 am

Latest Report: Mar 27, 2019 at 3:50 am


Visibility: 10 mi

Pressure: 30.01 "Hg

Humidity: 67%

Dew Point: 46 °F

Location of LatianoLocation

Past Weather in Latiano — Graph

°F

Latiano Temperature Yesterday

Maximum temperature yesterday: 63 °F (at 12:50 pm)
Minimum temperature yesterday: 48 °F (at 2:50 am)
Average temperature yesterday: 56 °F

High & Low Weather Summary for the Past Weeks

 TemperatureHumidityPressure
High70 °F (Mar 25, 4:20 pm)100% (Mar 17, 3:20 am)30.30 "Hg (Mar 17, 3:20 am)
Low43 °F (Mar 15, 5:20 am)33% (Mar 25, 4:20 pm)29.65 "Hg (Mar 12, 4:50 am)
Average55 °F75%30.02 "Hg
* Reported Mar 12 3:20 am — Mar 27 3:20 am, Latiano. Weather by CustomWeather, © 2019

Note: Actual official high and low records may vary slightly from our data, if they occured in-between our weather recording intervals... More about our weather records

Advertising

Latiano Weather History for the Previous 24 Hours

Scroll right to see more
 ConditionsComfort  
Time TempWeatherWind HumidityBarometerVisibility
3:20 am
Wed, Mar 27
57 °FClear.14 mph67%30.01 "Hg10 mi
2:20 am57 °FClear.12 mph67%30.01 "Hg10 mi
12:50 am57 °FClear.9 mph67%30.01 "Hg10 mi
12:20 am57 °FClear.9 mph67%30.01 "Hg10 mi
11:50 pm
Tue, Mar 26
57 °FClear.7 mph67%30.01 "Hg10 mi
11:20 pm57 °FClear.7 mph72%30.01 "Hg10 mi
10:50 pm57 °FPassing clouds.5 mph77%30.01 "HgN/A
10:20 pm55 °FClear.6 mph88%30.01 "Hg10 mi
9:50 pm55 °FClear.7 mph82%29.98 "Hg10 mi
9:20 pm54 °FClear.7 mph82%29.98 "Hg10 mi
8:50 pm55 °FPassing clouds.8 mph82%29.98 "HgN/A
8:20 pm55 °FPassing clouds.9 mph82%29.95 "HgN/A
7:50 pm57 °FPassing clouds.13 mph77%29.95 "HgN/A
7:20 pm57 °FPassing clouds.13 mph77%29.95 "HgN/A
6:50 pm57 °FPassing clouds.12 mph82%29.92 "HgN/A
6:20 pm57 °FPassing clouds.7 mph77%29.92 "HgN/A
5:50 pm59 °FScattered clouds.8 mph72%29.92 "HgN/A
5:20 pm59 °FScattered clouds.7 mph72%29.92 "HgN/A
4:50 pm59 °FSunny.9 mph77%29.89 "Hg10 mi
4:20 pm61 °FSunny.10 mph72%29.89 "Hg10 mi
3:50 pm61 °FSunny.10 mph72%29.89 "Hg10 mi
3:20 pm61 °FSunny.12 mph72%29.86 "Hg10 mi
2:50 pm61 °FSunny.13 mph68%29.86 "Hg10 mi
2:20 pm61 °FSunny.12 mph72%29.86 "Hg10 mi
1:20 pm61 °FSunny.14 mph72%29.86 "Hg10 mi
12:50 pm63 °FPassing clouds.10 mph68%29.86 "HgN/A
12:20 pm61 °FSunny.8 mph72%29.86 "Hg10 mi
11:50 am61 °FPassing clouds.6 mph72%29.86 "HgN/A
11:20 am61 °FPassing clouds.6 mph72%29.86 "HgN/A
10:50 am59 °FSunny.8 mph72%29.86 "Hg10 mi
10:20 am59 °FSunny.7 mph77%29.83 "Hg10 mi
9:50 am57 °FSunny.6 mph77%29.83 "Hg10 mi
9:20 am59 °FSunny.6 mph72%29.83 "Hg10 mi
8:50 am59 °FSunny.5 mph68%29.83 "Hg10 mi
8:20 am61 °FPassing clouds.3 mph52%29.80 "HgN/A
7:50 am57 °FPassing clouds.3 mph63%29.80 "HgN/A
7:20 am52 °FSunny.6 mph72%29.80 "Hg10 mi
6:50 am50 °FSunny.2 mph71%29.80 "Hg10 mi
6:20 am50 °FSunny.3 mph71%29.80 "Hg10 mi
5:50 am50 °FSunny.3 mph76%29.77 "Hg10 mi
5:20 am50 °FClear.2 mph82%29.77 "Hg10 mi
4:50 am50 °FClear.6 mph88%29.77 "Hg10 mi
4:20 am50 °FClear.2 mph82%29.77 "Hg10 mi
Weather by CustomWeather, © 2019

See weather overview